Regional Weather Roundup
Issued by NWS

Home | Current Version | Previous Version | Graphics & Text | Print | Product List | Glossary On
Versions: 1 2 3 4 5 6 7 8 9 10 11 12 13 14 15 16 17 18 19 20 21 22 23 24 25 26 27 28 29 30 31 32 33 34 35 36 37 38 39 40 41 42 43 44 45 46 47 48 49 50
000
ASUS44 KMEG 292110
RWRTN
TENNESSEE HOURLY STATE WEATHER ROUNDUP
NATIONAL WEATHER SERVICE MEMPHIS TN
400 PM CDT FRI JUL 29 2016

TNZ002-004-019-021-049-052-054-088>092-292200-
WEST TENNESSEE

CITY           SKY/WX    TMP DP  RH WIND       PRES   REMARKS
MEMPHIS INTL   PTSUNNY   88  76  67 SW8       29.92F HX  99
NWS MEMPHIS      N/A     88 N/A N/A MISG        N/A
JACKSON        MOSUNNY   87  77  72 N9        29.92F HX  99
DYERSBURG      PTSUNNY  N/A N/A N/A MISG        N/A
UNION CITY     MOSUNNY   86  77  74 VRB6      29.90F HX  97
PARIS          PTSUNNY   82  75  78 S7        29.93F
LEXINGTON      PTSUNNY   86  75  70 CALM      29.93S HX  95
$$

TNZ008-025-027-028-033-062-065-066-292200-
NORTH MIDDLE TENNESSEE

CITY           SKY/WX    TMP DP  RH WIND       PRES   REMARKS
NASHVILLE      PTSUNNY   87  72  60 SW12G17   29.93F HX  93
CLARKSVILLE    MOSUNNY   85  74  69 SW12      29.91F HX  92
SMYRNA         PTSUNNY   88  73  60 W12       29.94F HX  95
COOKEVILLE     SUNNY     77  72  83 N3        29.97F
CROSSVILLE     CLOUDY    79  66  64 W12       30.02F
$$

TNZ061-075-076-078-094-096-097-292200-
SOUTH MIDDLE TENNESSEE

CITY           SKY/WX    TMP DP  RH WIND       PRES   REMARKS
FAYETTEVILLE   PTSUNNY   82  73  74 VRB6G12   29.97F
TULLAHOMA      SUNNY     86  70  58 W7        29.98F HX  90
WINCHESTER     MOSUNNY   86  72  62 VRB7      29.98F HX  92
MCMINNVILLE    PTSUNNY   75  73  94 NE8       29.99R
COLUMBIA       MOSUNNY   90  75  62 S7        29.93F HX 100
SHELBYVILLE    MOSUNNY   90  73  58 VRB7      29.96F HX  98
$$

TNZ017-018-042-046-047-292200-
NORTHEAST TENNESSEE

CITY           SKY/WX    TMP DP  RH WIND       PRES   REMARKS
TRI CITIES     PTSUNNY   84  69  60 SE6       29.98F
ELIZABETHTON   DRIZZLE   84  68  58 VRB6      29.99S
$$

TNZ012-013-036-069-073-074-292200-
CENTRAL EAST TENNESSEE

CITY           SKY/WX    TMP DP  RH WIND       PRES   REMARKS
KNOXVILLE      TSTM      75  64  68 S18G46    29.96R
OAK RIDGE      PTSUNNY   88  69  53 VRB7      29.97S HX  92
GATLINBURG       N/A     90  66  45 W7        29.94S HX  92
MORRISTOWN     PTSUNNY   88  68  51 NW12      29.96S HX  91
$$

TNZ083-085-099-292200-
SOUTHEAST TENNESSEE

CITY           SKY/WX    TMP DP  RH WIND       PRES   REMARKS
CHATTANOOGA    MOSUNNY   89  69  51 S7        29.95F HX  93
$$

SKY/WX REPORTED AS FAIR MEANS FEW OR NO CLOUDS BELOW
12 THOUSAND FEET.





USA.gov is the U.S. government's official web portal to all federal, state and local government web resources and services.